Home > Time Zones > World Clock > Weather > Spain > Cadiz > Past weeks

Flag for Spain Weather past 2 weeks in Cadiz, Cádiz, Spain

Now
88 °F

Passing clouds.


Feels Like: 90 °F
Forecast: 69 / 83 °F
Wind: 13 mph from Southeast

Location: Rota Airport

Current Time: Sep 1, 2014 at 2:03:44 PM

Latest Report: Sep 1, 2014 at 1:00 PM


Visibility: N/A

Pressure: 29.95 "Hg

Humidity: 49%

Dew point: 66 °F

Location of CadizLocation

Historic Weather in Cadiz — Graph

°F

Cadiz temperature yesterday

Maximum temperature yesterday: 88 °F (at 2:00 PM)
Minimum temperature yesterday: 66 °F (at 7:00 AM)
Average temperature yesterday: 76 °F

Past Weeks' High & Low Weather Summary

 TemperatureHumidityPressure
High91 °F (Aug 25, 4:00 PM)94% (Aug 27, 3:00 AM)30.07 "Hg (Aug 27, 3:00 AM)
Low63 °F (Aug 21, 6:00 AM)31% (Aug 26, 2:00 PM)29.80 "Hg (Aug 17, 7:00 PM)
Average75 °F66%29.97 "Hg
* Reported Aug 17 1:00 PM — Sep 1 1:00 PM, Cadiz, Weather by CustomWeather, © 2014

Note: Actual official high and low records may vary slightly from our data, if they occured in-between our weather recording intervals... More about our weather records

Advertising

Cadiz weather history for previous 24 hours

 ConditionsComfort  
Time TempWeatherWind HumidityBarometerVisibility
1:00 PM
Sep 1
88 °FPassing clouds.13 mph49%29.95 "HgN/A
12:00 PM86 °FSunny.13 mph52%29.95 "Hg10 mi
11:00 AM84 °FPassing clouds.10 mph58%29.95 "HgN/A
10:00 AM79 °FPassing clouds.6 mph65%29.95 "HgN/A
9:00 AM73 °FSunny.5 mph74%29.95 "Hg10 mi
8:00 AM70 °FClear.2 mph78%29.92 "Hg10 mi
7:00 AM70 °FClear.3 mph83%29.92 "Hg10 mi
6:00 AM72 °FClear.2 mph78%29.92 "Hg10 mi
5:00 AM72 °FClear.3 mph83%29.92 "Hg10 mi
4:00 AM73 °FClear.6 mph78%29.95 "Hg10 mi
3:00 AM73 °FClear.No wind78%29.95 "Hg10 mi
2:00 AM73 °FClear.No wind74%29.95 "Hg10 mi
1:00 AM73 °FClear.2 mph78%29.95 "Hg10 mi
12:00 AM75 °FClear.No wind74%29.95 "Hg10 mi
11:00 PM
Aug 31
75 °FClear.2 mph74%29.95 "Hg10 mi
10:00 PM75 °FClear.2 mph74%29.95 "Hg10 mi
9:00 PM77 °FPassing clouds.7 mph74%29.92 "HgN/A
8:00 PM79 °FPassing clouds.10 mph65%29.92 "HgN/A
7:00 PM81 °FSunny.12 mph66%29.92 "Hg10 mi
6:00 PM82 °FPassing clouds.12 mph62%29.92 "HgN/A
5:00 PM82 °FPassing clouds.10 mph58%29.92 "HgN/A
4:00 PM82 °FPassing clouds.12 mph55%29.95 "HgN/A
3:00 PM84 °FPassing clouds.12 mph55%29.95 "HgN/A
2:00 PM88 °FPassing clouds.8 mph49%29.98 "HgN/A
Weather by CustomWeather, © 2014

See weather overviewHow to use our weather pages